Location: downtown San Diego
(32.7310°N, 117.1990°W)
Time: 05:35:39
(UTC-07:00)

USA 245 - Pass Details

Date: 12 July 2018
Orbit: 264 x 996 km, 97.9° (Epoch: 23 September)

Event Time Altitude Azimuth Distance (km) Brightness Sun altitude
Exits shadow 20:58:54 14° 109° (ESE) 2,361 5.9 -11.7°
Drops below altitude 10° 21:06:00 10° 24° (NNE) 2,379 6.7 -12.9°
Enters shadow 22:02:06 -61° 171° (S) 11,882 10.0 -21.7°
Maximum altitude 22:38:07 50° 259° (W) 1,134 4.9 -26.5°
